Observations
| Time | Sensor | AQI | SAQ | Temp °C | Hum % | Pres Pa | CO μg/m³ | H₂S μg/m³ | NO μg/m³ | NO₂ μg/m³ | O₃ μg/m³ | SO₂ μg/m³ | CO₂e PPM | VOC PPM | PM1 μg/m³ | PM2.5 μg/m³ | PM4 μg/m³ | PM10 μg/m³ | TPS µm |
|---|---|---|---|---|---|---|---|---|---|---|---|---|---|---|---|---|---|---|---|
| Tuesday 11 August 2026 | |||||||||||||||||||
| 08:06 | Trim Patrick St | 1 | 19.1 | 66 | 16,403 | 0.6 | 0 | 3.35 | 13.81 | 0.84 | 0 | 3.71 | 8.34 | 9.17 | |||||
| 08:06 | Trim Market St | 1 | 22.2 | 59 | 57,661 | 0.57 | 0 | 3.07 | 11.49 | 0 | 0 | 0.71 | 3.08 | 4.06 | |||||
| 08:05 | Trim Patrick St | 1 | 19 | 66 | 27,055 | 0.6 | 0 | 3.54 | 13.63 | 0 | 0.04 | 2.86 | 6.85 | 7.53 | |||||
| 08:04 | Trim Patrick St | 1 | 18.8 | 67 | 34,976 | 0.6 | 0 | 3.34 | 16.22 | 3.02 | 0 | 3.71 | 8.26 | 9.08 | |||||
| 08:04 | Trim Market St | 1 | 22 | 60 | 57,692 | 0.58 | 0 | 3.2 | 12.76 | 9.32 | 0 | 0.71 | 3.54 | 4.77 | |||||
| 08:03 | Trim Patrick St | 1 | 18.7 | 67 | 38,460 | 0.62 | 0 | 2.8 | 13.63 | 0 | 0 | 4.57 | 8.96 | 9.85 | |||||
| 08:03 | Trim Market St | 1 | 21.8 | 60 | 57,677 | 0.59 | 0 | 3.23 | 10.52 | 0 | 0 | 0.71 | 3.53 | 4.78 | |||||
| 08:02 | Trim Patrick St | 1 | 18.5 | 68 | 38,460 | 0.65 | 0 | 2.7 | 18.33 | 0 | 0 | 3.71 | 7.48 | 8.23 | |||||
| 08:02 | Trim Market St | 1 | 21.6 | 60 | 57,657 | 0.59 | 0 | 3.21 | 11.64 | 2.9 | 0 | 0.71 | 3.01 | 4.11 | |||||
| 08:01 | Trim Patrick St | 1 | 18.3 | 68 | 38,460 | 0.63 | 0 | 3.12 | 16.45 | 11.94 | 0 | 3.71 | 8.15 | 8.97 | |||||
| 08:00 | Trim Patrick St | 1 | 18.2 | 69 | 38,460 | 0.61 | 0 | 3.03 | 14.69 | 2.37 | 0 | 4.57 | 8.12 | 8.93 | |||||
| 08:00 | Trim Market St | 1 | 21.4 | 61 | 57,612 | 0.6 | 0 | 3.18 | 9.14 | 0 | 0 | 1.43 | 3.47 | 4.81 | |||||
| 07:59 | Trim Patrick St | 1 | 18 | 69 | 38,460 | 0.6 | 0 | 3.29 | 15.31 | 5.97 | 0 | 3.71 | 7.38 | 8.12 | |||||
| 07:59 | Trim Market St | 1 | 21.2 | 62 | 57,579 | 0.61 | 0 | 3.18 | 11.46 | 2.17 | 0 | 1.43 | 2.95 | 4.15 | |||||
| 07:58 | Trim Patrick St | 1 | 17.9 | 70 | 38,460 | 0.62 | 0 | 4.08 | 14.15 | 0 | 0 | 3.71 | 6.62 | 7.28 | |||||
| 07:57 | Trim Patrick St | 1 | 17.7 | 71 | 38,460 | 0.63 | 0 | 4.15 | 33.16 | 9.68 | 0 | 4.57 | 7.97 | 8.77 | |||||
| 07:56 | Trim Patrick St | 1 | 17.5 | 71 | 38,460 | 0.64 | 0 | 3.37 | 37.11 | 0 | 0 | 4.57 | 8.65 | 9.52 | |||||
| 07:55 | Trim Market St | 1 | 20.7 | 63 | 57,500 | 0.6 | 0 | 3.19 | 12.1 | 7.26 | 0 | 0.71 | 2.39 | 4.19 | |||||
| 07:55 | Trim Patrick St | 1 | 17.3 | 72 | 38,460 | 0.67 | 0 | 3.22 | 47.64 | 4 | 0 | 2.86 | 7.87 | 8.66 | |||||
| 07:54 | Trim Patrick St | 1 | 17.1 | 73 | 38,460 | 0.62 | 0 | 2.85 | 30.8 | 7.05 | 0 | 4.57 | 7.13 | 7.85 | |||||